Regional Weather Roundup
Issued by NWS

Home | Current Version | Previous Version | Text Only | Print | Product List | Glossary Off
Versions: 1 2 3 4 5 6 7 8 9 10 11 12 13 14 15 16 17 18 19 20 21 22 23 24 25 26 27 28 29 30 31 32 33 34 35 36 37 38 39 40 41 42 43 44 45 46 47 48 49 50

000
ASUS43 KFSD 272110
RWRSD

WEATHER ROUNDUP FOR SOUTH DAKOTA
NATIONAL WEATHER SERVICE SIOUX FALLS SD
400 PM CDT SAT AUG 27 2016

NOTE: "FAIR" INDICATES FEW OR NO CLOUDS BELOW 12,000 FEET WITH NO
SIGNIFICANT WEATHER AND/OR OBSTRUCTIONS TO VISIBILITY.


SDZ001>005-009-010-012>017-272200-
NORTHWEST AND NORTH CENTRAL SOUTH DAKOTA

CITY           SKY/WX    TMP DP  RH WIND       PRES   REMARKS
BUFFALO          N/A     80  48  32 SW14      29.85F
FAITH            N/A     79  51  37 S9        29.91F
MOBRIDGE       SUNNY     82  51  34 MISG      29.88F
$$

SDZ012>016-024>037-041>051-057-063-072>074-272200-
SOUTHWEST AND SOUTH CENTRAL SOUTH DAKOTA

CITY           SKY/WX    TMP DP  RH WIND       PRES   REMARKS
RAPID CTY ARPT SUNNY     81  54  39 SE15G23   29.90F
PIERRE         SUNNY     81  55  40 S9        29.90F
CUSTER         SUNNY     73  39  29 SW7G17    30.06S
ELLSWORTH AFB  SUNNY     81  55  41 SE13      29.90
PHILIP         SUNNY     82  57  42 S10       29.90F
PINE RIDGE     SUNNY     82  54  37 CALM      29.95F
WINNER         FAIR      86  59  39 SW14      29.93F
$$

SDZ004>011-016>023-039-040-272200-
NORTHEAST SOUTH DAKOTA

CITY           SKY/WX    TMP DP  RH WIND       PRES   REMARKS
ABERDEEN       SUNNY     79  61  53 S14       29.92F
WATERTOWN      SUNNY     74  61  63 S10       29.96F
BROOKINGS      MOSUNNY   73  61  65 SW8       29.98F
SISSETON         N/A     76  62  62 S9        29.92
$$

SDZ017-020-022-023-036>040-048>070-272200-
SOUTHEAST SOUTH DAKOTA

CITY           SKY/WX    TMP DP  RH WIND       PRES   REMARKS
SIOUX FALLS    MOSUNNY   76  64  66 S12       29.98F
HURON          SUNNY     80  62  54 VRB7      29.92F
CHAMBERLAIN    MOSUNNY   86  58  37 SE3       29.92F
MITCHELL       SUNNY     82  61  48 S9        29.94F
YANKTON        SUNNY     81  61  50 S9        29.94F
$$

ABBREVIATIONS USED IN REMARKS
   TC - TEMPERATURE IN CELSIUS
  WCI - WIND CHILL INDEX
   HX - HEAT INDEX
  VSB - VISIBILITY





USA.gov is the U.S. government's official web portal to all federal, state and local government web resources and services.